SCP
0 0 0 0 0 0 0 0 0 0 0 0 0 0 0 0 0 0 0 1 1 1 0 0 0 0 0 0 0 0 0 0 0 0 0 0 0 0 0 0 0 0 0
0 0 0 0 0 0 0 0 0 0 0 0 0 0 0 0 0 0 0 0 1 1 0 0 0 0 0 0 0 0 0 0 0 0 0 0 0 0 0 0 0 0 0
0 0 0 0 0 0 0 0 0 0 0 0 0 0 0 0 0 0 0 0 1 1 1 0 0 0 1 0 0 0 0 0 0 0 0 0 0 0 0 0 0 0 0
0 0 0 0 0 0 0 0 0 0 0 0 0 0 0 0 0 0 0 0 1 1 0 0 0 0 1 0 0 0 0 0 0 0 0 0 0 0 0 0 0 0 0
0 0 0 0 0 0 0 0 0 0 0 0 0 0 0 0 0 0 0 0 0 0 0 0 0 0 0 0 0 0 0 0 0 0 0 0 0 0 0 0 0 0 0
0 0 0 0 0 0 0 0 0 0 0 0 0 0 0 0 0 0 0 0 0 0 0 0 0 0 0 0 0 0 0 0 0 0 0 0 0 0 0 0 0 0 0
0 0 0 0 0 0 0 0 0 0 0 0 0 0 0 0 0 0 0 0 0 0 0 0 0 0 0 0 0 0 0 0 0 0 0 0 0 0 0 0 0 0 0
0 0 0 0 0 0 0 0 0 0 0 0 0 0 0 0 0 0 0 0 0 0 0 0 0 0 0 0 0 0 0 0 0 0 0 0 0 0 0 0 0 0 0
0 0 0 0 0 0 0 0 0 0 0 0 0 0 0 0 0 0 0 0 0 0 0 0 0 0 0 0 0 0 0 0 0 0 0 0 0 0 0 0 0 0 0
0 0 0 0 0 0 0 0 0 0 0 0 0 0 0 0 0 0 0 0 0 0 0 0 0 0 0 0 0 0 0 0 0 0 0 0 0 0 0 0 0 0 0
0 0 0 0 0 0 0 0 0 0 0 0 0 0 0 0 0 0 0 0 0 0 0 0 0 0 0 0 0 0 0 0 0 0 0 0 0 0 0 0 0 0 0
0 0 0 0 0 0 0 0 0 0 0 0 0 0 0 0 0 0 0 0 0 0 0 0 0 0 0 0 0 0 0 0 0 0 0 0 0 0 0 0 0 0 0
0 0 0 0 0 0 0 0 0 0 0 0 0 0 0 0 0 0 0 0 0 0 0 0 0 0 0 0 0 0 0 0 0 0 0 0 0 0 0 0 0 0 0
0 0 0 0 0 0 0 0 0 0 0 0 0 0 0 0 0 0 0 0 0 0 0 0 0 0 0 0 0 0 0 0 0 0 0 0 0 0 0 0 0 0 0
0 0 0 0 0 0 0 0 0 0 0 0 0 0 0 0 0 0 0 0 0 0 0 0 0 0 0 0 0 0 0 0 0 0 0 0 0 0 0 0 0 0 0
0 0 0 0 0 0 0 0 0 0 0 0 0 0 0 0 0 0 0 0 0 0 0 0 0 0 0 0 0 0 0 0 0 0 0 0 0 0 0 0 0 0 0
0 0 0 0 0 0 0 0 0 0 0 0 0 0 0 0 0 0 0 0 0 0 0 0 0 0 0 0 0 0 0 0 0 0 0 0 0 0 0 0 0 0 0
0 0 0 0 0 0 0 0 0 0 0 0 0 0 0 0 0 0 0 0 0 0 0 0 0 0 0 0 0 0 0 0 0 0 0 0 0 0 0 0 0 0 0
0 0 0 0 0 0 0 0 0 0 0 0 0 0 0 0 0 0 0 0 0 0 0 0 0 0 0 0 0 0 0 0 0 0 0 0 0 0 0 0 0 0 0
0 0 0 0 0 0 0 0 0 0 0 0 0 0 0 0 0 0 0 0 0 0 0 0 0 0 0 0 0 0 0 0 0 0 0 0 0 0 0 0 0 0 0
0 0 0 0 0 0 0 0 0 0 0 0 0 0 0 0 0 0 0 0 0 0 0 0 0 0 0 0 0 0 0 0 0 0 0 0 0 0 0 0 0 0 0
0 0 0 0 0 0 0 0 0 0 0 0 0 0 0 0 0 0 0 0 0 0 0 0 0 0 0 0 0 0 0 0 0 0 0 0 0 0 0 0 0 0 0
0 0 0 0 0 0 0 0 0 0 0 0 0 0 0 0 0 0 0 0 0 0 0 0 0 0 0 0 0 0 0 0 0 0 0 0 0 0 0 0 0 0 0
0 0 0 0 0 0 0 0 0 0 0 0 0 0 0 0 0 0 0 0 0 0 0 0 0 0 0 0 0 0 0 0 0 0 0 0 0 0 0 0 0 0 0
0 0 0 0 0 0 0 0 0 0 0 0 0 0 0 0 0 0 0 0 0 0 0 0 0 0 0 0 0 0 0 0 0 0 0 0 0 0 0 0 0 0 0
0 0 0 0 0 0 0 0 0 0 0 0 0 0 0 0 0 0 0 0 0 0 0 0 0 0 0 0 0 0 0 0 0 0 0 0 0 0 0 0 0 0 0
Wind_Speed
11 11 11 10 10 10 10 10 9 9 9 8 6 4 3 1 1 1 2 3 5 5 5 6 7 5 5 5 5 5 5 5 5 2 2 3 6 7 6 5 5 5 5
9 9 10 10 10 11 11 10 10 10 10 9 8 7 6 4 2 1 2 3 4 5 6 6 7 5 7 6 6 6 6 5 5 5 4 4 5 7 7 6 5 4 4
8 9 10 10 10 10 10 10 10 9 9 10 9 9 8 8 5 3 2 3 4 5 5 6 7 6 8 6 7 7 6 5 4 4 4 3 3 5 5 4 4 3 3
8 8 9 9 8 8 8 8 9 9 9 9 9 8 8 7 7 6 4 4 4 4 4 5 6 7 8 7 7 7 6 5 5 5 4 4 3 4 5 5 4 3 3
7 7 7 7 6 7 7 7 7 8 8 8 8 8 7 6 7 8 7 5 5 5 5 5 5 6 8 7 6 6 7 6 6 6 5 5 5 6 7 5 5 4 3
6 6 6 6 6 7 7 7 7 7 7 7 8 8 8 7 12 14 10 6 5 5 5 5 4 5 7 9 9 9 9 9 8 7 6 8 8 7 6 6 6 5 4
5 5 5 6 6 6 6 7 7 7 7 7 7 7 8 10 15 15 14 8 6 5 5 5 4 4 5 4 6 8 9 12 11 8 9 9 8 9 9 8 7 6 5
5 5 6 6 6 6 6 6 6 5 6 6 7 7 7 10 16 16 16 8 5 5 5 5 5 5 4 5 4 5 5 7 8 7 8 8 8 9 11 10 8 5 3
5 6 6 6 6 6 6 6 5 5 5 5 6 6 7 9 15 16 15 6 5 6 5 5 6 6 9 9 5 5 5 5 6 8 8 8 11 13 12 7 7 6 4
5 5 5 5 5 6 6 6 5 5 6 6 7 6 7 8 13 16 15 5 6 6 5 5 8 9 10 10 6 6 7 6 4 4 5 7 8 12 17 12 10 7 4
5 5 5 5 5 6 5 5 6 6 6 6 7 7 7 8 12 15 15 7 5 6 6 5 5 11 12 12 10 6 8 6 4 5 4 4 5 6 7 7 7 7 6
5 5 5 6 5 5 5 6 6 6 6 7 7 7 6 7 10 12 16 14 12 7 7 5 6 13 13 13 9 9 10 7 3 4 4 5 6 6 5 6 6 4 3
5 6 6 7 6 5 5 7 6 5 5 6 6 7 7 5 7 15 16 17 16 9 7 12 14 15 13 9 10 11 8 4 4 5 6 6 5 5 5 5 5 5 6
5 6 6 6 6 6 5 5 5 6 6 7 8 8 8 7 6 6 6 8 11 10 8 11 15 14 10 10 8 6 4 4 5 5 5 4 4 5 6 6 5 6 5
5 6 6 6 6 6 6 5 7 6 8 10 8 8 9 9 10 17 13 8 7 8 9 6 4 4 4 4 4 4 3 3 4 3 4 4 5 6 6 5 5 6 5
6 6 5 5 6 6 7 8 11 13 17 18 18 16 12 16 21 21 21 20 20 19 12 6 5 5 5 5 4 4 4 4 4 4 4 5 6 7 6 6 5 6 6
5 7 6 6 6 7 7 8 10 11 15 17 18 19 18 20 21 21 21 20 19 17 8 6 5 6 5 5 5 5 5 4 4 4 5 5 6 7 7 7 7 6 6
6 7 7 6 6 7 7 8 8 10 11 9 11 17 19 19 20 20 20 16 9 7 5 6 6 6 5 5 5 5 4 4 4 4 5 5 6 7 7 8 8 8 7
6 5 6 6 6 7 7 8 8 9 10 10 9 10 15 17 18 17 15 7 7 7 6 6 6 6 5 5 5 5 5 5 5 4 4 5 6 7 7 8 8 12 9
5 10 10 7 7 7 7 8 8 9 9 9 9 9 9 10 8 8 7 6 7 7 6 6 6 6 5 5 5 5 5 4 5 4 4 4 5 6 7 9 9 9 8
5 7 12 9 7 7 8 8 8 9 9 9 9 11 17 10 8 9 8 7 6 7 7 6 6 5 5 5 5 5 5 4 4 4 4 4 5 6 6 7 8 8 8
5 5 6 7 7 8 8 8 8 9 10 11 9 10 17 9 7 8 7 7 7 6 6 6 5 5 5 5 5 5 5 4 4 4 4 4 5 5 6 7 8 8 9
5 6 7 7 8 11 10 8 8 9 9 10 10 9 9 8 8 8 8 8 7 7 6 6 5 5 5 5 5 5 5 5 4 5 5 5 5 6 6 7 9 10 10
4 6 7 7 8 8 8 8 8 9 10 10 9 9 9 8 8 9 8 7 7 7 7 6 6 7 8 6 5 4 4 4 4 4 6 6 6 6 6 7 8 10 10
4 5 6 7 7 8 8 8 9 9 9 10 9 9 9 9 9 9 8 7 8 8 8 8 6 6 7 7 6 5 6 8 6 4 5 5 6 7 8 8 8 10 9
4 5 6 6 6 7 8 8 9 9 9 9 9 9 9 9 9 8 8 8 8 8 8 7 7 7 8 6 6 7 8 8 8 6 4 4 6 7 8 7 9 9 11
Wind_Direction
34 34 33 31 32 34 33 26 23 23 21 17 11 11 3 341 222 217 236 235 229 227 219 220 226 219 217 218 216 213 213 205 219 193 169 162 172 177 173 167 167 168 174
31 34 33 31 32 32 29 23 22 24 21 18 16 16 13 6 354 274 250 246 243 241 234 229 232 224 224 221 219 220 216 206 199 199 183 176 183 181 171 168 168 167 171
29 32 32 29 29 27 24 19 18 19 19 17 17 15 9 4 355 337 301 274 255 249 246 241 238 227 229 227 223 221 217 209 199 192 182 169 163 165 160 160 162 163 172
28 32 31 25 23 21 19 18 16 15 16 12 10 8 3 357 358 352 334 309 291 277 263 253 245 236 234 230 225 222 214 206 197 190 180 167 162 164 162 167 173 177 181
26 28 22 15 16 17 16 14 12 13 10 4 2 359 356 354 355 350 342 323 303 293 281 266 257 256 252 244 233 218 208 207 200 196 189 178 178 176 184 171 178 166 178
22 16 6 7 9 9 6 4 5 4 0 1 359 352 350 348 343 343 340 326 315 300 290 283 272 257 260 260 254 237 220 211 207 204 204 199 198 187 173 172 163 166 197
11 4 1 360 0 356 354 357 355 351 350 350 347 346 340 335 339 338 333 325 310 301 294 289 287 274 269 253 256 252 239 230 219 213 210 206 195 188 177 178 180 179 186
360 353 350 350 348 345 349 348 340 335 336 332 330 329 326 326 333 334 330 321 305 297 291 285 283 279 264 258 247 247 245 238 230 224 222 212 198 186 186 185 178 156 108
347 340 336 337 336 335 333 326 319 319 319 315 313 316 316 316 325 327 327 312 303 298 292 288 285 278 274 271 254 244 253 258 248 229 225 216 200 191 179 160 159 164 172
324 320 319 321 320 317 312 309 309 310 306 309 308 306 303 303 316 321 323 310 304 300 294 285 285 286 284 275 259 241 243 246 227 220 217 213 204 196 189 183 174 171 154
309 310 311 311 308 302 302 301 305 306 307 305 301 298 296 299 310 315 318 314 303 300 295 291 284 288 285 281 278 261 253 252 225 212 207 200 191 191 191 185 179 171 165
310 312 311 310 308 313 307 304 303 304 306 305 302 301 293 295 305 309 312 311 309 297 293 289 285 288 286 284 281 271 266 261 231 208 206 204 196 192 185 176 167 155 146
319 315 310 310 306 305 305 306 307 304 302 303 302 302 302 296 298 307 310 310 309 301 289 291 291 289 286 279 272 273 270 247 221 219 216 213 200 179 159 144 129 114 86
312 309 306 307 306 304 301 298 298 297 297 300 302 302 302 299 292 290 291 298 301 298 291 287 290 287 283 277 270 264 254 238 231 229 221 200 172 167 172 165 159 151 130
309 307 308 305 302 303 300 293 297 281 287 298 297 296 299 299 296 301 302 298 295 289 293 284 276 276 266 260 258 253 245 240 238 226 211 196 184 182 179 168 158 157 158
316 316 313 311 309 309 309 308 305 305 306 304 301 299 296 296 302 304 303 301 301 299 296 282 279 273 269 265 263 259 248 239 235 227 213 202 194 187 179 169 165 167 165
312 313 311 313 314 314 313 312 311 312 309 307 306 306 304 305 306 306 306 303 300 300 290 278 275 273 269 265 261 259 256 243 230 225 218 205 194 188 180 176 173 169 165
313 313 315 307 307 305 305 305 305 307 310 308 308 308 309 309 309 307 307 307 300 295 278 276 273 272 270 266 261 259 258 248 235 228 222 208 194 188 184 180 177 173 166
316 311 308 304 303 302 303 303 302 302 302 303 305 307 312 313 310 307 308 298 290 286 281 275 273 273 272 269 263 257 251 248 237 225 220 212 197 187 186 182 177 175 165
309 314 318 312 308 306 304 304 305 304 304 304 304 307 310 309 306 305 300 288 286 286 282 277 274 272 272 270 267 259 254 247 230 220 213 207 197 189 185 179 175 173 172
304 308 316 314 306 306 306 305 305 306 305 304 304 306 311 309 307 304 300 294 290 289 286 280 274 270 269 268 266 260 254 249 236 217 205 201 192 188 183 177 173 170 164
301 305 308 308 307 306 305 304 306 305 306 305 305 308 314 312 304 302 302 301 299 293 288 283 278 271 268 265 264 261 252 244 235 216 202 200 188 180 177 173 169 166 163
302 306 309 309 307 309 312 308 307 306 306 306 307 309 311 310 308 305 304 304 303 300 296 286 279 277 274 270 260 253 251 245 233 214 199 194 184 177 176 174 170 167 167
302 305 308 308 308 307 307 308 308 308 309 308 309 309 310 311 310 308 309 307 305 303 299 292 284 278 278 278 273 262 255 254 240 214 197 191 185 178 175 174 173 172 169
301 303 305 305 306 307 307 307 307 308 309 310 310 311 311 310 309 309 308 306 305 301 299 295 287 281 276 274 274 271 265 263 253 223 196 190 185 179 175 173 172 168 168
302 301 301 302 302 304 305 306 307 309 310 310 309 308 308 309 309 308 307 307 308 306 302 298 289 285 282 276 272 271 268 256 244 228 205 187 181 178 173 172 171 170 167